Temperature
31 32 32 33 33 33 33 33 33 33 33 32 32 32 32 31 30 29 28 27 26 25 25 24 22 22 21 21 20 20 20 19 19 19 19 19 19 19 18 18 18 18 18 18
31 32 33 33 32 32 32 32 33 33 32 32 32 32 33 32 30 30 29 28 27 26 25 24 23 22 21 21 21 20 20 20 20 19 19 19 19 19 19 19 18 18 18 18
31 32 33 32 32 31 32 32 32 32 32 32 32 32 32 32 31 30 29 28 28 27 26 24 23 23 22 21 21 21 21 20 20 20 19 19 19 19 19 19 19 18 18 18
32 32 32 31 32 32 31 33 32 32 31 32 32 31 32 32 31 31 30 29 28 27 26 25 24 23 23 22 22 21 21 21 20 20 20 19 19 19 19 19 19 18 18 18
31 31 31 31 32 32 32 32 32 32 31 31 31 31 32 32 32 32 31 30 29 28 27 26 25 24 23 23 22 21 21 21 21 20 20 20 19 19 19 19 19 19 18 18
32 32 32 32 32 32 31 31 31 31 32 30 31 31 32 33 32 32 32 30 29 28 27 26 25 24 23 23 22 21 21 21 21 21 20 20 20 19 19 19 19 19 19 19
30 31 31 31 31 31 31 31 30 30 30 30 31 31 32 32 32 32 31 30 29 28 27 26 25 24 23 22 22 22 22 22 21 21 20 20 20 20 19 19 19 19 19 19
30 30 31 31 31 31 31 31 30 29 30 31 30 31 32 32 31 30 30 29 29 28 27 26 25 24 23 23 22 22 22 22 21 21 21 20 20 20 19 19 19 19 19 19
30 30 31 31 31 31 31 31 32 31 30 30 31 31 32 31 31 30 30 29 28 27 27 26 25 24 23 23 22 22 22 22 22 21 21 21 20 20 20 19 19 19 19 19
30 29 30 30 31 30 31 31 31 30 29 29 30 30 31 30 30 30 29 28 28 27 26 26 25 24 24 23 22 22 22 22 21 21 21 20 20 20 20 20 19 19 19 19
29 29 30 30 29 30 30 30 30 30 30 29 29 30 31 30 29 29 29 27 27 26 26 26 25 24 24 23 22 21 21 21 21 21 21 20 20 20 20 20 20 19 19 19
28 29 29 29 30 30 30 30 30 29 28 29 30 30 30 29 29 28 27 26 25 25 25 25 24 24 23 23 22 21 21 20 20 20 20 20 20 20 20 20 20 19 19 19
27 27 27 28 29 29 29 30 30 30 29 29 29 30 29 28 28 27 26 25 24 24 23 23 23 23 22 22 22 21 21 20 20 20 20 20 20 20 20 20 19 19 19 19
25 27 27 28 28 29 28 29 29 29 29 29 29 30 28 28 27 27 25 24 23 23 22 22 22 21 21 21 21 21 20 20 20 20 19 19 20 20 20 20 19 19 19 19
26 26 27 27 28 28 28 28 28 28 29 29 29 29 28 27 26 25 24 23 23 22 22 21 21 21 20 20 20 20 19 19 19 19 19 19 20 20 19 19 19 19 19 18
25 25 26 26 27 27 27 27 28 28 28 28 28 28 27 26 25 24 24 23 22 22 21 21 20 20 20 20 19 19 19 19 19 19 19 19 19 19 19 19 19 19 18 18
24 24 24 25 27 26 26 27 27 27 27 27 27 27 26 25 25 24 23 22 22 21 21 20 20 20 19 19 19 19 19 19 19 19 19 19 19 18 18 18 18 18 18 18
22 22 24 25 25 24 26 26 26 26 26 26 26 25 25 24 23 22 22 21 21 20 20 19 19 19 19 19 18 18 18 18 18 18 18 18 18 18 18 18 17 17 17 17
23 22 23 24 24 25 25 25 25 25 25 25 24 24 23 23 22 22 20 20 19 19 18 18 18 18 18 18 18 18 18 18 18 18 18 17 17 17 17 17 17 17 17 17
22 22 23 23 23 23 24 24 23 24 24 23 23 22 22 22 23 23 19 19 18 18 18 17 17 17 17 17 17 17 17 17 17 17 17 16 16 16 17 17 16 16 16 16
22 21 22 22 23 24 23 22 23 23 23 21 21 21 21 21 21 19 18 18 17 17 17 17 17 17 16 16 16 16 16 16 16 16 16 16 16 16 16 16 16 15 15 15
22 22 22 22 22 22 21 22 22 21 20 19 20 20 19 19 18 18 17 17 16 16 16 16 16 16 16 16 16 16 16 16 16 16 15 15 15 15 15 15 15 15 15 15
21 21 22 21 21 20 19 19 19 18 18 18 18 18 18 18 18 17 17 16 16 16 15 15 15 15 15 15 15 15 15 15 15 15 15 15 15 15 14 14 14 14 14 14
19 19 19 19 20 19 18 18 17 17 17 17 17 17 17 17 17 16 16 15 15 15 15 15 15 15 14 14 14 15 15 15 15 14 14 14 14 14 14 14 14 14 14 14
19 19 19 18 19 18 18 17 17 16 16 16 16 16 16 16 16 15 15 15 15 15 14 14 14 14 14 14 14 14 14 14 14 14 14 14 14 13 13 13 13 13 13 13
18 18 18 18 18 18 17 16 16 16 16 16 16 15 15 15 15 15 14 14 14 14 14 14 13 13 13 13 13 13 13 13 13 13 13 13 13 13 13 13 13 13 13 13
Wind_Speed
10 12 13 12 11 10 9 9 9 6 4 7 10 9 6 9 12 12 13 14 14 13 13 12 12 11 11 11 11 10 10 9 8 7 6 6 6 5 5 5 6 6 6 7
12 16 13 9 9 11 11 11 10 6 4 7 9 10 8 9 12 12 13 14 15 14 14 14 13 13 13 13 12 12 12 11 10 8 6 5 4 4 5 4 5 7 7 7
18 12 9 10 12 12 13 12 10 8 6 8 9 11 10 9 11 11 12 13 14 15 15 15 15 15 14 14 14 12 12 12 11 9 7 6 5 5 5 6 5 6 7 7
15 11 10 13 14 13 13 10 9 9 9 8 8 9 7 8 10 12 13 13 14 15 16 15 16 16 16 15 14 13 13 12 12 11 9 9 7 6 6 5 5 6 7 7
12 12 13 14 13 12 9 5 8 9 11 10 10 10 7 7 9 10 11 12 13 14 16 16 17 16 15 15 14 13 13 12 12 12 11 10 9 7 5 5 5 6 6 7
11 9 10 12 11 10 7 6 6 9 11 13 11 11 9 6 7 7 8 9 10 12 13 14 15 14 14 14 14 13 13 13 13 13 12 12 10 8 6 6 6 6 6 6
14 13 10 9 10 11 11 11 9 10 11 11 7 10 8 3 3 5 5 5 7 9 11 13 15 15 15 15 15 14 14 13 13 13 13 12 11 9 8 7 7 6 5 5
14 14 13 11 13 11 14 16 13 11 11 9 8 10 6 2 3 3 4 3 4 7 10 12 14 14 14 15 15 14 15 14 13 13 12 11 11 9 8 8 6 6 5 5
10 11 8 9 11 13 14 15 14 13 13 12 9 8 6 4 4 3 3 2 3 4 6 9 12 13 14 15 15 15 14 14 14 13 12 11 11 9 8 7 8 7 6 5
8 9 9 7 8 9 11 12 10 12 12 13 12 12 8 5 4 3 1 1 1 2 4 7 10 12 13 14 14 14 14 13 13 13 11 10 10 10 9 8 8 7 7 6
9 10 10 9 10 12 10 11 10 11 12 13 13 8 2 2 2 2 1 0 0 0 2 5 7 10 11 12 13 13 13 13 12 11 11 10 9 9 9 8 8 8 8 8
6 8 11 11 8 7 11 12 13 12 11 12 14 7 3 1 0 0 0 1 1 1 1 3 5 8 9 11 12 12 11 11 11 10 10 10 9 9 9 9 9 8 8 8
4 7 10 11 11 10 11 12 12 13 11 13 15 9 4 2 1 0 1 1 2 2 2 3 4 5 7 8 9 10 10 10 9 9 9 9 9 9 9 9 8 8 8 8
5 9 12 13 9 8 11 12 12 14 13 14 16 11 4 2 2 1 1 1 2 2 3 3 4 4 4 6 6 7 8 8 8 9 9 9 8 8 9 8 8 8 8 8
5 10 11 11 9 9 11 12 13 15 15 15 14 12 6 3 2 1 1 2 2 3 3 3 4 4 4 4 4 5 5 6 7 8 8 8 7 7 6 6 7 7 7 8
4 8 10 12 12 12 12 12 13 15 14 14 13 10 4 2 2 2 2 2 2 2 2 3 3 4 4 4 4 4 4 5 6 6 7 6 6 5 5 5 5 6 7 7
5 6 10 12 11 12 15 13 13 13 11 12 12 8 3 3 3 2 2 1 1 2 2 2 2 2 3 3 4 4 4 5 6 6 6 5 5 4 4 5 6 6 7 7
8 9 8 10 10 16 6 3 7 9 8 7 6 4 3 2 2 2 1 0 0 1 1 1 1 1 2 2 3 3 3 4 4 4 4 4 3 4 4 5 6 6 6 6
10 9 9 10 14 13 6 3 4 7 8 4 4 4 3 1 2 2 1 2 1 1 1 1 1 1 2 2 2 2 2 3 3 3 3 3 3 3 4 5 5 5 5 5
9 10 10 10 13 13 5 1 4 7 9 1 1 2 3 3 5 2 3 2 1 1 1 1 1 2 2 2 2 1 1 2 1 1 1 1 2 3 3 4 4 4 4 5
10 10 13 14 14 9 1 1 4 8 3 1 2 2 3 3 3 2 1 1 1 1 2 1 2 2 2 2 1 1 1 1 1 0 1 1 2 2 2 2 3 4 4 4
9 10 11 12 14 9 2 1 3 2 2 1 2 2 2 1 1 0 0 0 1 1 1 1 1 2 2 1 1 1 1 1 1 1 0 1 2 2 1 2 3 3 3 3
7 6 5 5 3 2 2 1 2 1 1 1 2 3 2 2 1 1 1 0 0 0 1 1 1 1 1 1 0 0 1 1 1 0 1 1 2 2 2 3 3 3 3 3
6 4 5 5 4 2 0 1 1 2 2 3 3 3 3 3 3 2 2 1 1 1 0 0 1 1 2 2 2 1 1 1 1 1 1 1 2 2 2 2 2 2 2 2
6 5 6 8 6 4 4 2 1 2 3 3 3 2 2 3 3 2 2 2 2 1 1 1 0 1 1 2 2 2 1 1 1 1 1 2 2 2 1 1 2 3 2 2
9 9 9 8 5 4 4 4 4 4 3 3 2 3 3 3 3 3 2 2 2 2 1 1 1 0 1 1 1 1 1 1 1 1 2 2 2 2 2 1 1 3 1 2
Wind_Direction
204 222 225 226 235 259 266 260 252 242 209 234 249 256 230 201 207 205 201 199 199 201 196 192 195 195 192 191 191 191 192 183 184 184 189 189 191 192 189 192 183 190 197 194
213 228 230 229 233 244 250 252 250 233 217 246 259 259 242 215 216 213 207 204 204 201 197 194 197 198 198 195 195 193 194 190 191 187 192 196 195 200 195 198 186 198 198 202
225 228 213 218 221 233 241 247 255 253 233 236 260 255 233 220 217 216 216 213 208 204 201 196 199 201 200 199 197 197 195 191 195 189 189 187 191 208 202 198 195 200 202 205
230 224 214 223 225 232 240 243 253 248 243 245 242 267 234 218 215 217 219 215 212 207 205 201 200 202 203 201 197 196 194 193 191 192 197 198 202 207 205 202 196 195 201 206
218 216 217 226 229 230 245 247 245 243 247 256 238 260 251 216 229 224 219 217 214 209 206 204 202 201 201 199 195 192 191 192 191 195 198 205 212 212 204 200 191 203 200 207
230 213 226 232 230 226 211 209 223 237 246 246 242 251 259 240 240 236 220 216 217 211 206 204 201 196 196 194 193 190 187 190 192 196 202 208 210 209 202 200 198 202 199 199
223 219 217 224 220 205 210 222 228 231 233 243 223 244 258 266 261 250 241 224 214 208 203 199 197 194 193 192 191 189 186 190 194 197 201 204 207 205 206 207 205 212 206 199
220 219 210 215 224 220 219 228 237 249 251 244 210 241 245 245 259 255 251 244 212 200 201 199 196 196 193 191 190 189 189 190 192 197 200 203 205 208 209 209 214 210 218 213
229 223 205 214 224 233 223 232 245 253 259 265 249 245 235 234 243 246 238 224 212 203 201 199 196 195 194 192 190 191 190 191 193 197 197 201 204 210 211 206 213 217 215 213
241 236 211 201 208 217 240 238 237 243 249 254 249 242 245 233 248 249 240 247 238 195 202 193 192 193 193 193 191 191 190 194 195 195 196 197 200 205 212 214 213 218 216 213
243 236 220 203 216 215 208 221 233 243 250 254 258 245 224 215 261 260 251 218 332 157 184 180 184 184 185 186 189 190 189 190 195 197 196 200 200 204 210 213 219 217 218 212
239 240 236 224 218 243 228 225 224 236 242 250 262 256 100 126 222 284 67 70 82 96 144 163 168 170 175 178 181 183 186 188 192 194 195 200 200 202 209 215 219 219 218 215
244 236 232 221 209 210 224 226 230 239 246 248 252 244 136 113 115 103 92 90 93 94 101 120 139 154 165 170 173 177 182 186 186 189 196 199 201 201 207 217 218 217 218 216
268 244 246 249 245 220 224 227 228 236 242 247 250 258 213 222 227 218 174 134 124 111 109 119 124 135 148 159 166 174 182 182 183 187 195 199 201 205 209 212 214 214 214 215
273 247 247 256 255 246 241 235 231 238 250 257 259 257 250 256 248 219 190 133 120 118 115 125 130 135 143 143 155 173 182 181 182 184 188 193 196 202 205 208 211 212 213 216
275 258 250 248 242 241 243 240 239 242 249 254 260 261 263 248 226 212 193 164 140 122 113 121 131 136 142 146 155 163 172 181 184 187 189 190 190 192 200 210 214 214 216 219
255 250 249 249 242 245 239 239 240 241 248 253 252 252 223 217 215 226 210 169 154 130 112 116 125 139 153 157 162 169 171 173 176 179 184 182 183 190 205 217 219 218 216 217
249 254 249 249 241 241 239 238 242 240 245 253 258 239 223 217 221 221 234 152 10 44 56 87 100 108 126 132 137 154 154 160 168 168 169 169 180 181 192 209 216 219 221 219
235 237 245 243 240 241 227 232 243 238 236 246 241 220 215 205 192 181 91 53 43 32 46 81 84 97 102 116 121 135 137 143 159 162 160 171 190 188 199 213 221 225 229 231
213 223 238 238 245 247 240 219 259 250 232 219 257 217 219 232 240 201 69 39 38 47 58 88 102 102 106 101 113 133 125 125 151 161 168 193 213 218 218 227 234 235 234 235
209 219 231 238 242 244 348 1 231 235 255 44 270 255 253 262 296 15 53 28 34 62 60 89 109 108 109 106 103 114 109 90 56 71 162 208 233 239 237 245 245 243 236 235
231 227 228 235 240 237 40 216 247 335 20 3 321 306 300 323 9 107 97 82 81 78 55 62 80 80 86 99 125 138 102 54 56 55 260 252 255 267 261 241 244 243 234 225
241 259 262 256 253 48 27 2 11 356 336 338 331 334 324 307 294 307 323 10 28 12 44 62 72 58 42 38 101 115 46 37 45 303 277 263 251 251 245 239 234 230 229 229
232 255 253 250 236 235 267 1 6 9 352 343 342 333 324 305 294 289 290 292 288 279 347 52 67 34 11 7 1 25 0 314 276 264 262 244 239 243 240 255 255 247 240 241
260 247 249 247 241 246 243 260 312 329 330 340 344 330 318 302 291 291 289 287 286 297 328 326 317 27 21 19 9 9 1 322 292 287 273 261 252 248 243 270 318 285 290 277
254 251 250 253 247 256 261 275 283 285 287 298 306 312 310 298 294 295 286 286 284 277 278 280 279 348 10 20 1 349 335 297 256 257 267 272 259 243 238 231 317 37 353 8
Height
1481 1480 1478 1475 1475 1476 1476 1478 1479 1477 1476 1480 1480 1478 1478 1484 1487 1490 1494 1498 1501 1504 1508 1511 1513 1515 1517 1518 1520 1522 1524 1525 1527 1528 1530 1531 1532 1533 1535 1536 1537 1538 1540 1541
1479 1477 1471 1472 1475 1477 1478 1480 1477 1475 1476 1479 1477 1476 1474 1479 1482 1485 1489 1493 1497 1500 1504 1507 1510 1512 1514 1516 1517 1519 1521 1523 1525 1527 1528 1530 1531 1533 1534 1535 1535 1537 1539 1540
1474 1469 1470 1474 1477 1479 1477 1478 1476 1477 1477 1477 1478 1477 1473 1473 1479 1482 1485 1488 1491 1495 1499 1503 1506 1508 1511 1513 1514 1517 1519 1521 1523 1525 1527 1529 1529 1531 1533 1533 1534 1536 1537 1538
1468 1466 1471 1473 1474 1475 1478 1471 1473 1476 1480 1479 1479 1484 1471 1468 1473 1476 1480 1483 1486 1490 1494 1498 1501 1504 1506 1509 1512 1514 1516 1518 1520 1522 1525 1527 1528 1529 1530 1532 1533 1534 1535 1537
1467 1467 1470 1472 1470 1470 1471 1470 1472 1474 1477 1479 1477 1482 1470 1465 1469 1469 1473 1477 1481 1485 1489 1492 1496 1499 1503 1506 1509 1511 1513 1515 1517 1519 1522 1524 1526 1527 1529 1530 1531 1532 1534 1535
1462 1464 1466 1466 1466 1468 1470 1473 1475 1474 1473 1488 1478 1481 1476 1462 1465 1465 1468 1473 1477 1480 1484 1488 1492 1495 1499 1502 1505 1508 1509 1512 1514 1516 1519 1521 1523 1525 1527 1528 1529 1531 1532 1533
1466 1463 1463 1465 1467 1468 1470 1477 1487 1491 1489 1483 1470 1477 1471 1460 1461 1463 1466 1469 1473 1476 1480 1483 1487 1491 1494 1497 1501 1504 1506 1508 1511 1513 1515 1518 1520 1522 1523 1525 1527 1529 1531 1531
1468 1468 1460 1461 1463 1465 1466 1468 1485 1495 1489 1476 1473 1474 1463 1458 1462 1464 1466 1469 1471 1474 1476 1479 1482 1486 1489 1493 1496 1500 1502 1505 1507 1510 1513 1515 1517 1519 1521 1522 1525 1526 1528 1529
1460 1463 1455 1457 1458 1460 1464 1464 1458 1469 1473 1479 1471 1464 1458 1458 1461 1463 1465 1467 1469 1471 1473 1476 1479 1482 1486 1489 1492 1495 1498 1501 1504 1507 1509 1511 1514 1516 1519 1520 1521 1523 1524 1526
1457 1464 1455 1456 1458 1459 1458 1458 1463 1470 1486 1488 1475 1469 1463 1461 1460 1461 1463 1465 1467 1469 1471 1472 1475 1479 1482 1485 1489 1492 1494 1497 1501 1504 1506 1509 1511 1513 1515 1517 1518 1519 1521 1522
1456 1463 1458 1457 1459 1458 1462 1464 1463 1464 1466 1479 1480 1468 1452 1458 1460 1461 1463 1465 1467 1469 1469 1471 1473 1475 1479 1482 1485 1488 1491 1494 1497 1500 1503 1506 1508 1510 1512 1513 1514 1515 1517 1518
1459 1458 1459 1455 1452 1452 1453 1456 1461 1471 1473 1468 1470 1465 1452 1456 1459 1462 1464 1466 1467 1468 1469 1470 1472 1474 1476 1479 1482 1485 1488 1491 1494 1497 1499 1502 1504 1506 1508 1510 1511 1512 1513 1514
1461 1461 1468 1464 1460 1456 1455 1454 1454 1457 1462 1465 1468 1463 1453 1457 1460 1463 1465 1467 1468 1469 1470 1470 1471 1473 1475 1477 1480 1483 1485 1488 1491 1494 1496 1498 1500 1502 1504 1505 1506 1508 1509 1510
1464 1459 1462 1463 1455 1451 1456 1455 1454 1457 1459 1461 1459 1455 1455 1457 1460 1463 1466 1467 1468 1469 1469 1470 1471 1472 1474 1476 1478 1480 1483 1485 1488 1490 1492 1494 1496 1498 1499 1500 1502 1503 1504 1506
1463 1459 1457 1453 1450 1451 1452 1453 1454 1456 1454 1456 1453 1452 1454 1457 1461 1464 1466 1467 1468 1468 1469 1470 1470 1471 1473 1474 1476 1478 1481 1483 1485 1487 1489 1490 1492 1494 1495 1497 1498 1499 1500 1502
1463 1461 1458 1457 1451 1450 1453 1452 1452 1453 1452 1452 1452 1454 1454 1459 1462 1465 1466 1467 1467 1468 1469 1470 1470 1471 1472 1473 1475 1476 1478 1481 1483 1484 1486 1487 1489 1490 1491 1493 1494 1495 1496 1497
1462 1463 1463 1458 1451 1453 1457 1450 1450 1451 1450 1451 1453 1454 1456 1459 1462 1464 1465 1466 1467 1467 1468 1469 1470 1471 1472 1472 1473 1474 1476 1478 1480 1481 1482 1484 1485 1486 1487 1489 1491 1492 1492 1493
1466 1465 1460 1457 1459 1468 1450 1447 1448 1450 1451 1452 1453 1455 1457 1460 1463 1465 1466 1466 1467 1467 1468 1469 1470 1470 1471 1472 1472 1473 1474 1475 1477 1478 1479 1481 1482 1482 1483 1485 1487 1487 1488 1488
1462 1464 1460 1457 1457 1452 1450 1449 1450 1451 1452 1453 1454 1456 1458 1460 1462 1464 1466 1467 1467 1468 1468 1468 1469 1469 1469 1470 1471 1472 1472 1473 1474 1475 1476 1477 1479 1479 1480 1482 1483 1483 1484 1484
1458 1460 1459 1457 1461 1458 1449 1449 1452 1452 1454 1455 1457 1458 1459 1459 1458 1461 1465 1466 1467 1467 1467 1467 1468 1468 1468 1468 1469 1470 1471 1471 1472 1473 1473 1474 1476 1476 1477 1477 1479 1480 1479 1479
1456 1458 1457 1455 1455 1447 1449 1451 1452 1458 1455 1457 1458 1459 1460 1460 1461 1464 1465 1466 1466 1466 1466 1466 1466 1467 1467 1467 1468 1469 1469 1470 1470 1471 1471 1472 1473 1473 1473 1474 1475 1475 1475 1475
1452 1451 1453 1451 1454 1453 1452 1452 1454 1457 1459 1459 1459 1460 1461 1462 1463 1464 1464 1465 1465 1465 1465 1465 1465 1466 1466 1466 1467 1468 1468 1469 1469 1469 1469 1470 1470 1470 1471 1471 1471 1471 1471 1471
1451 1450 1447 1449 1452 1455 1456 1456 1459 1460 1460 1460 1460 1461 1461 1462 1462 1463 1464 1464 1464 1464 1464 1464 1464 1464 1465 1465 1466 1466 1466 1467 1467 1467 1467 1468 1468 1467 1468 1468 1468 1468 1468 1468
1452 1454 1453 1453 1452 1455 1457 1458 1459 1460 1460 1460 1460 1461 1461 1461 1461 1462 1462 1462 1463 1463 1463 1463 1463 1463 1464 1464 1464 1464 1464 1465 1465 1465 1465 1466 1466 1466 1466 1465 1466 1465 1465 1465
1453 1453 1452 1453 1454 1456 1457 1459 1459 1460 1460 1460 1460 1460 1460 1460 1461 1461 1461 1461 1461 1461 1461 1461 1461 1461 1461 1462 1462 1462 1462 1462 1463 1463 1463 1463 1463 1463 1463 1462 1462 1462 1461 1462
1454 1453 1452 1451 1453 1455 1457 1458 1458 1459 1459 1459 1459 1459 1459 1459 1459 1459 1459 1459 1459 1459 1459 1460 1460 1460 1460 1460 1460 1460 1461 1460 1461 1461 1461 1461 1461 1460 1460 1460 1459 1458 1458 1458